Location: Monrovia
(34.7865°N, 86.7139°W)
Time: 00:53:31
(UTC+00:00)

Cosmos 1825 - Pass Details

Date: 14 July 2020
Orbit: 502 x 509 km, 82.5° (Epoch: 12 August)

Event Time Altitude Azimuth Distance (km) Brightness Sun altitude
Exits shadow 03:25:57 34° 36° (NE) 847 3.3 -23.7°
Drops below altitude 10° 03:28:21 10° 17° (NNE) 1,731 5.3 -24.0°
Sets 03:30:31 0° 12° (NNE) 2,621 6.4 -24.3°
